FW0892 Weather Reports


Display with metric or nautical units.
time (UTC)temp
F
wind
direction
speed
MPH
gust
MPH
rain 1hr
in
rain 24hr
in
rain mn
in
humidity
%
barometer
mb
20190522132027 71 0.0 0.0 0.00 0.00 0.00 83 1020.2
20190522131020 70 0.0 0.0 0.00 0.00 0.00 85 1020.1
20190522130016 69 0.0 0.0 0.00 0.00 0.00 86 1020.3
20190522125018 68 0.0 0.0 0.00 0.00 0.00 89 1020.2
20190522124022 67 0.0 0.0 0.00 0.00 0.00 90 1020.2
20190522123030 66 0.0 0.0 0.00 0.00 0.00 92 1020.3
20190522122023 66 0.0 0.0 0.00 0.00 0.00 93 1020.1
20190522121028 65 0.0 0.0 0.00 0.00 0.00 94 1020.1
20190522120027 64 0.0 0.0 0.00 0.00 0.00 96 1020.0
20190522115019 64 0.0 0.0 0.00 0.00 0.00 97 1019.5
20190522114017 63 0.0 0.0 0.00 0.00 0.00 98 1019.4
20190522113015 63 0.0 0.0 0.00 0.00 0.00 98 1019.4
20190522112023 63 0.0 0.0 0.00 0.00 0.00 98 1019.4
20190522111024 63 0.0 0.0 0.00 0.00 0.00 98 1019.4
20190522110023 63 0.0 0.0 0.00 0.00 0.00 98 1019.5
20190522105019 63 0.0 0.0 0.00 0.00 0.00 97 1019.4
20190522104015 64 0.0 0.0 0.00 0.00 0.00 97 1019.4
20190522103020 64 0.0 0.0 0.00 0.00 0.00 97 1019.4
20190522102027 64 0.0 0.0 0.00 0.00 0.00 97 1019.3
20190522101018 64 0.0 0.0 0.00 0.00 0.00 98 1018.9
20190522100027 64 0.0 0.0 0.00 0.00 0.00 98 1018.7
20190522095029 64 0.0 0.0 0.00 0.00 0.00 98 1018.7
20190522094029 64 0.0 0.0 0.00 0.00 0.00 97 1018.7
20190522093016 65 0.0 0.0 0.00 0.00 0.00 96 1018.7
20190522092030 65 0.0 0.0 0.00 0.00 0.00 97 1018.7
20190522091018 65 0.0 0.0 0.00 0.00 0.00 96 1018.7
20190522090023 65 0.0 0.0 0.00 0.00 0.00 95 1018.4
20190522085028 65 0.0 0.0 0.00 0.00 0.00 93 1018.3
20190522084020 65 0.0 0.0 0.00 0.00 0.00 94 1018.0
20190522083017 65 0.0 0.0 0.00 0.00 0.00 97 1017.7
20190522082027 66 0.0 0.0 0.00 0.00 0.00 98 1017.7
20190522081015 66 0.0 0.0 0.00 0.00 0.00 97 1017.5
20190522080021 66 0.0 0.0 0.00 0.00 0.00 97 1017.4
20190522075016 66 0.0 0.0 0.00 0.00 0.00 97 1017.7
20190522074030 66 0.0 0.0 0.00 0.00 0.00 96 1017.7
20190522073024 66 0.0 0.0 0.00 0.00 0.00 94 1017.6
20190522072018 66 0.0 0.0 0.00 0.00 0.00 93 1017.3
20190522071029 67 0.0 0.0 0.00 0.00 0.00 93 1017.3
20190522070022 67 0.0 0.0 0.00 0.00 0.00 94 1017.1
20190522065018 68 0.0 0.0 0.00 0.00 0.00 94 1017.0
20190522064020 68 0.0 0.0 0.00 0.00 0.00 93 1017.1
20190522063027 68 0.0 0.0 0.00 0.00 0.00 92 1017.3
20190522062018 68 0.0 0.0 0.00 0.00 0.00 91 1017.3
20190522061028 69 0.0 0.0 0.00 0.00 0.00 90 1017.1
20190522060018 69 0.0 0.0 0.00 0.00 0.00 90 1017.0
20190522055028 69 0.0 0.0 0.00 0.00 0.00 90 1017.0
20190522054020 69 0.0 0.0 0.00 0.00 0.00 90 1017.0
20190522053027 69 0.0 0.0 0.00 0.00 0.00 90 1017.0
20190522052029 69 0.0 0.0 0.00 0.00 0.00 92 1017.0
20190522051029 69 0.0 0.0 0.00 0.00 0.00 91 1017.0
20190522050028 69 0.0 0.0 0.00 0.00 0.00 91 1017.0
20190522045021 69 0.0 0.0 0.00 0.00 0.00 89 1017.0
20190522044027 69 0.0 0.0 0.00 0.00 0.00 89 1017.0
20190522043015 69 0.0 0.0 0.00 0.00 0.00 91 1017.0
20190522042028 70 0.0 0.0 0.00 0.00 0.00 89 1016.7
20190522041023 70 0.0 0.0 0.00 0.00 0.00 90 1016.7
20190522040029 70 0.0 0.0 0.00 0.00 0.00 89 1016.7
20190522035018 70 0.0 0.0 0.00 0.00 0.00 89 1016.6
20190522034027 71 0.0 0.0 0.00 0.00 0.00 89 1016.4
20190522033020 71 0.0 0.0 0.00 0.00 0.00 89 1016.1
20190522032029 71 0.0 0.0 0.00 0.00 0.00 88 1015.9
20190522031023 72 0.0 0.0 0.00 0.00 0.00 87 1015.9
20190522030023 72 0.0 0.0 0.00 0.00 0.00 86 1015.6
20190522025019 72 0.0 0.0 0.00 0.00 0.00 85 1015.6
20190522024017 72 0.0 0.0 0.00 0.00 0.00 85 1015.3
20190522023028 73 0.0 0.0 0.00 0.00 0.00 86 1015.2
20190522022018 73 0.0 0.0 0.00 0.00 0.00 84 1014.9
20190522021030 74 0.0 0.0 0.00 0.00 0.00 83 1014.5
20190522020023 74 0.0 0.0 0.00 0.00 0.00 83 1014.2
20190522015019 75 0.0 0.0 0.00 0.00 0.00 80 1014.2
20190522014031 75 0.0 0.0 0.00 0.00 0.00 80 1013.8
20190522013029 76 0.0 0.0 0.00 0.00 0.00 80 1013.5
20190522012023 77 0.0 0.0 0.00 0.00 0.00 79 1013.4
20190522011018 78 0.0 0.0 0.00 0.00 0.00 79 1013.2
20190522010027 78 0.0 0.0 0.00 0.00 0.00 78 1012.8
20190522005019 79 0.0 0.0 0.00 0.00 0.00 76 1012.7
20190522004031 80 0.0 0.0 0.00 0.00 0.00 76 1012.5
20190522003027 81 0.0 0.0 0.00 0.00 0.00 73 1012.4
20190522002021 83 0.0 0.0 0.00 0.00 0.00 70 1012.5
20190522001016 84 0.0 0.0 0.00 0.00 0.00 65 1012.5
20190522000028 85 0.0 0.0 0.00 0.00 0.00 59 1012.5
20190521235023 87 0.0 0.0 0.00 0.00 0.00 54 1012.5
20190521234019 88 0.0 0.0 0.00 0.00 0.00 52 1012.5
20190521233030 89 0.0 0.0 0.00 0.00 0.00 49 1012.7
20190521232030 90 0.0 0.0 0.00 0.00 0.00 47 1012.8
20190521231021 90 0.0 0.0 0.00 0.00 0.00 46 1013.1
20190521230017 90 0.0 0.0 0.00 0.00 0.00 42 1013.2
20190521225029 90 0.0 0.0 0.00 0.00 0.00 45 1013.2
20190521224026 91 0.0 0.0 0.00 0.00 0.00 43 1013.4
20190521223019 92 0.0 0.0 0.00 0.00 0.00 40 1013.6
20190521222017 93 0.0 0.0 0.00 0.00 0.00 40 1013.8
20190521221022 93 290 0.0 2.0 0.00 0.00 0.00 39 1014.1
20190521220029 93 0.0 0.0 0.00 0.00 0.00 38 1014.2
20190521215023 93 0.0 0.0 0.00 0.00 0.00 38 1014.0
20190521214020 93 0.0 0.0 0.00 0.00 0.00 37 1014.0
20190521213027 92 0.0 0.0 0.00 0.00 0.00 38 1013.9
20190521212019 90 193 0.0 4.0 0.00 0.00 0.00 38 1014.0
20190521211018 91 0.0 0.0 0.00 0.00 0.00 42 1013.8
20190521210028 92 0.0 0.0 0.00 0.00 0.00 43 1013.8
20190521205026 93 0.0 0.0 0.00 0.00 0.00 42 1013.9
20190521204018 94 198 0.0 4.0 0.00 0.00 0.00 37 1014.2
20190521203016 93 0.0 0.0 0.00 0.00 0.00 37 1014.2
20190521202029 93 0.0 0.0 0.00 0.00 0.00 36 1014.7
20190521201029 92 0.0 0.0 0.00 0.00 0.00 36 1014.9
20190521200026 92 188 0.0 7.0 0.00 0.00 0.00 38 1015.0
20190521195020 92 0.0 0.0 0.00 0.00 0.00 37 1015.0
20190521194018 92 0.0 0.0 0.00 0.00 0.00 39 1015.0
20190521193015 92 0.0 0.0 0.00 0.00 0.00 38 1014.9
20190521192026 91 197 0.0 2.0 0.00 0.00 0.00 38 1014.9
20190521191016 91 0.0 0.0 0.00 0.00 0.00 38 1015.0
20190521190016 91 0.0 0.0 0.00 0.00 0.00 40 1014.9
20190521185015 91 0.0 0.0 0.00 0.00 0.00 39 1015.2
20190521184029 91 0.0 0.0 0.00 0.00 0.00 38 1015.3
20190521183028 91 0.0 0.0 0.00 0.00 0.00 39 1015.5
20190521182026 90 0.0 0.0 0.00 0.00 0.00 38 1015.7
20190521181018 89 0.0 0.0 0.00 0.00 0.00 39 1015.6
20190521180015 88 0.0 0.0 0.00 0.00 0.00 41 1015.9
20190521175028 88 0.0 0.0 0.00 0.00 0.00 42 1015.9
20190521174027 88 154 0.0 2.0 0.00 0.00 0.00 42 1015.9
20190521173018 88 0.0 0.0 0.00 0.00 0.00 44 1015.9
20190521172027 88 184 0.0 4.0 0.00 0.00 0.00 44 1016.3
20190521171021 88 189 0.0 2.0 0.00 0.00 0.00 43 1016.3
20190521170017 88 0.0 0.0 0.00 0.00 0.00 43 1016.3
20190521165030 88 167 0.0 2.0 0.00 0.00 0.00 42 1016.4
20190521164028 88 240 0.0 2.0 0.00 0.00 0.00 44 1016.3
20190521163019 87 0.0 0.0 0.00 0.00 0.00 43 1016.4
20190521162029 87 0.0 0.0 0.00 0.00 0.00 45 1016.6
20190521161023 87 0.0 0.0 0.00 0.00 0.00 44 1016.6
20190521160022 87 0.0 0.0 0.00 0.00 0.00 44 1017.0
20190521155021 87 0.0 0.0 0.00 0.00 0.00 42 1017.0
20190521154017 86 190 0.0 2.0 0.00 0.00 0.00 45 1017.0
20190521153027 86 209 0.0 2.0 0.00 0.00 0.00 46 1017.0
20190521152019 86 0.0 0.0 0.00 0.00 0.00 48 1017.0
20190521151027 85 0.0 0.0 0.00 0.00 0.00 49 1017.0
20190521150030 84 190 0.0 2.0 0.00 0.00 0.00 48 1017.2
20190521145018 84 0.0 0.0 0.00 0.00 0.00 52 1017.1
20190521144021 84 0.0 0.0 0.00 0.00 0.00 55 1017.0
20190521143019 83 0.0 0.0 0.00 0.00 0.00 55 1017.2
20190521142030 80 0.0 0.0 0.00 0.00 0.00 56 1017.2
20190521141020 77 0.0 0.0 0.00 0.00 0.00 58 1017.2
20190521140016 74 0.0 0.0 0.00 0.00 0.00 65 1017.3
20190521135026 71 0.0 0.0 0.00 0.00 0.00 75 1017.2
20190521134018 69 0.0 0.0 0.00 0.00 0.00 83 1017.3
20190521133030 67 0.0 0.0 0.00 0.00 0.00 86 1017.2